BTK6254 WIII-WALL

Flight info

Callsign BTK6254
Flight time 1h 46m
Altitude 37000
Route EGUKO T9 SILJA
Aircraft B738/M-SDE2E3FGHIRWXY/LB1

Departure

Time 2026-04-16 06:59
Airport Soekarno-Hatta International Airport (WIII)

Arrival

Time 2026-04-16 08:46
Airport Sultan Aji Muhammad Sulaiman Sepinggan International Airport (WALL)
Time Latitude Longitude Altitude Speed Heading
2026-04-16 06:45 -6.11982 106.65585 37 ft 0 kts 217°
2026-04-16 06:50 -6.11972 106.65592 37 ft 4 kts 219°
2026-04-16 06:50 -6.11952 106.65610 37 ft 4 kts 229°
2026-04-16 06:50 -6.11937 106.65632 37 ft 4 kts 251°
2026-04-16 06:50 -6.11936 106.65654 37 ft 3 kts 308°
2026-04-16 06:51 -6.11941 106.65660 35 ft 0 kts 312°
2026-04-16 06:53 -6.11939 106.65658 35 ft 2 kts 313°
2026-04-16 06:53 -6.11919 106.65636 37 ft 6 kts 305°
2026-04-16 06:53 -6.11898 106.65588 37 ft 9 kts 283°
2026-04-16 06:54 -6.11906 106.65522 37 ft 10 kts 249°
2026-04-16 06:54 -6.11936 106.65446 37 ft 12 kts 248°
2026-04-16 06:54 -6.11952 106.65367 37 ft 12 kts 290°
2026-04-16 06:54 -6.11906 106.65301 36 ft 11 kts 307°
2026-04-16 06:55 -6.11853 106.65243 37 ft 11 kts 325°
2026-04-16 06:55 -6.11784 106.65212 34 ft 11 kts 321°
2026-04-16 06:55 -6.11787 106.65137 37 ft 13 kts 250°
2026-04-16 06:55 -6.11828 106.65037 38 ft 17 kts 248°
2026-04-16 06:56 -6.11870 106.64930 37 ft 16 kts 248°
2026-04-16 06:56 -6.11910 106.64828 37 ft 15 kts 248°
2026-04-16 06:56 -6.11950 106.64727 37 ft 18 kts 248°
2026-04-16 06:56 -6.12001 106.64604 37 ft 19 kts 248°
2026-04-16 06:57 -6.12053 106.64472 37 ft 23 kts 248°
2026-04-16 06:57 -6.12112 106.64323 37 ft 23 kts 248°
2026-04-16 06:57 -6.12170 106.64178 37 ft 22 kts 248°
2026-04-16 06:57 -6.12226 106.64039 37 ft 21 kts 248°
2026-04-16 06:58 -6.12262 106.63924 38 ft 15 kts 276°
2026-04-16 06:58 -6.12189 106.63876 38 ft 13 kts
2026-04-16 06:58 -6.12107 106.63896 38 ft 10 kts
2026-04-16 06:58 -6.12065 106.63950 37 ft 12 kts 69°
2026-04-16 06:59 -6.11961 106.64213 37 ft 76 kts 68°
2026-04-16 06:59 -6.11677 106.64924 40 ft 140 kts 68°
2026-04-16 06:59 -6.11244 106.65985 192 ft 179 kts 68°
2026-04-16 06:59 -6.10791 106.67160 993 ft 178 kts 68°
2026-04-16 07:00 -6.10321 106.68271 1909 ft 171 kts 57°
2026-04-16 07:00 -6.09513 106.69211 2386 ft 189 kts 42°
2026-04-16 07:00 -6.08484 106.70118 2796 ft 207 kts 43°
2026-04-16 07:01 -6.06232 106.72322 3286 ft 250 kts 47°
2026-04-16 07:01 -6.04933 106.73667 3324 ft 283 kts 45°
2026-04-16 07:01 -6.03518 106.75101 3942 ft 290 kts 46°
2026-04-16 07:01 -6.02131 106.76515 4943 ft 277 kts 46°
2026-04-16 07:02 -6.00771 106.77906 5649 ft 282 kts 47°
2026-04-16 07:02 -5.99416 106.79348 6345 ft 286 kts 47°
2026-04-16 07:02 -5.98032 106.80830 6919 ft 296 kts 48°
2026-04-16 07:02 -5.96637 106.82321 7781 ft 292 kts 47°
2026-04-16 07:03 -5.95343 106.83914 8642 ft 292 kts 60°
2026-04-16 07:03 -5.94388 106.85691 9348 ft 294 kts 63°
2026-04-16 07:03 -5.93437 106.87534 9960 ft 300 kts 63°
2026-04-16 07:03 -5.92459 106.89401 10581 ft 304 kts 63°
2026-04-16 07:04 -5.91459 106.91280 11234 ft 307 kts 62°
2026-04-16 07:04 -5.90435 106.93178 11897 ft 310 kts 62°
2026-04-16 07:04 -5.89392 106.95096 12553 ft 314 kts 62°
2026-04-16 07:04 -5.88338 106.97024 13248 ft 316 kts 62°
2026-04-16 07:05 -5.87275 106.98962 13978 ft 317 kts 61°
2026-04-16 07:05 -5.86200 107.00922 14673 ft 320 kts 61°
2026-04-16 07:05 -5.85119 107.02886 15371 ft 323 kts 61°
2026-04-16 07:05 -5.84027 107.04874 16061 ft 325 kts 61°
2026-04-16 07:06 -5.82944 107.06843 16713 ft 328 kts 61°
2026-04-16 07:06 -5.81834 107.08861 17363 ft 330 kts 61°
2026-04-16 07:06 -5.80719 107.10889 17991 ft 333 kts 61°
2026-04-16 07:06 -5.79592 107.12935 18617 ft 335 kts 61°
2026-04-16 07:07 -5.78455 107.14997 19222 ft 338 kts 62°
2026-04-16 07:07 -5.77324 107.17051 19784 ft 342 kts 62°
2026-04-16 07:07 -5.76171 107.19144 20366 ft 344 kts 62°
2026-04-16 07:07 -5.75006 107.21258 20921 ft 347 kts 62°
2026-04-16 07:08 -5.73830 107.23391 21450 ft 350 kts 62°
2026-04-16 07:08 -5.72648 107.25533 21938 ft 354 kts 62°
2026-04-16 07:08 -5.71452 107.27707 22441 ft 357 kts 62°
2026-04-16 07:08 -5.70250 107.29893 22944 ft 359 kts 62°
2026-04-16 07:09 -5.69035 107.32101 23423 ft 362 kts 63°
2026-04-16 07:09 -5.67816 107.34319 23887 ft 365 kts 63°
2026-04-16 07:09 -5.66579 107.36568 24342 ft 367 kts 63°
2026-04-16 07:09 -5.65341 107.38819 24784 ft 370 kts 63°
2026-04-16 07:10 -5.64090 107.41092 25217 ft 373 kts 63°
2026-04-16 07:10 -5.62829 107.43385 25653 ft 375 kts 63°
2026-04-16 07:10 -5.61566 107.45683 26077 ft 377 kts 63°
2026-04-16 07:10 -5.60291 107.48000 26492 ft 380 kts 63°
2026-04-16 07:11 -5.59011 107.50324 26904 ft 382 kts 63°
2026-04-16 07:11 -5.57735 107.52642 27299 ft 384 kts 63°
2026-04-16 07:11 -5.56438 107.54997 27663 ft 387 kts 63°
2026-04-16 07:11 -5.55132 107.57369 28019 ft 390 kts 63°
2026-04-16 07:12 -5.53817 107.59757 28393 ft 392 kts 63°
2026-04-16 07:12 -5.52495 107.62155 28761 ft 394 kts 63°
2026-04-16 07:12 -5.51166 107.64567 29118 ft 396 kts 63°
2026-04-16 07:12 -5.49833 107.66987 29462 ft 398 kts 63°
2026-04-16 07:13 -5.48944 107.68603 29695 ft 399 kts 63°
2026-04-16 07:13 -5.47597 107.71050 30046 ft 401 kts 63°
2026-04-16 07:13 -5.46241 107.73510 30382 ft 403 kts 63°
2026-04-16 07:13 -5.44879 107.75982 30696 ft 405 kts 63°
2026-04-16 07:14 -5.43513 107.78459 31011 ft 407 kts 62°
2026-04-16 07:14 -5.42043 107.80898 31322 ft 409 kts 58°
2026-04-16 07:14 -5.40411 107.83275 31441 ft 417 kts 56°
2026-04-16 07:15 -5.36945 107.88067 31565 ft 432 kts 55°
2026-04-16 07:15 -5.33382 107.93027 31681 ft 445 kts 56°
2026-04-16 07:16 -5.29757 107.98165 31785 ft 457 kts 56°
2026-04-16 07:16 -5.26060 108.03436 31912 ft 466 kts 56°
2026-04-16 07:16 -5.24213 108.06071 32054 ft 468 kts 56°
2026-04-16 07:17 -5.22333 108.08751 32328 ft 468 kts 56°
2026-04-16 07:17 -5.20464 108.11414 32684 ft 465 kts 56°
2026-04-16 07:17 -5.18610 108.14056 33025 ft 463 kts 56°
2026-04-16 07:17 -5.16758 108.16695 33304 ft 462 kts 56°
2026-04-16 07:18 -5.14908 108.19331 33548 ft 462 kts 56°
2026-04-16 07:18 -5.13060 108.21965 33811 ft 461 kts 56°
2026-04-16 07:18 -5.11222 108.24583 34106 ft 459 kts 56°
2026-04-16 07:18 -5.09385 108.27200 34371 ft 458 kts 56°
2026-04-16 07:19 -5.07549 108.29815 34600 ft 458 kts 56°
2026-04-16 07:19 -5.05712 108.32431 34792 ft 459 kts 56°
2026-04-16 07:19 -5.03894 108.35021 35010 ft 458 kts 56°
2026-04-16 07:19 -5.02059 108.37634 35249 ft 458 kts 56°
2026-04-16 07:20 -5.00227 108.40241 35486 ft 457 kts 56°
2026-04-16 07:20 -4.98397 108.42846 35736 ft 456 kts 56°
2026-04-16 07:20 -4.96570 108.45445 35942 ft 455 kts 56°
2026-04-16 07:20 -4.94745 108.48044 36120 ft 456 kts 56°
2026-04-16 07:21 -4.92915 108.50649 36318 ft 456 kts 56°
2026-04-16 07:21 -4.91087 108.53251 36480 ft 456 kts 56°
2026-04-16 07:21 -4.89263 108.55848 36675 ft 456 kts 56°
2026-04-16 07:21 -4.87458 108.58410 36843 ft 456 kts 56°
2026-04-16 07:22 -4.85624 108.61018 36817 ft 458 kts 56°
2026-04-16 07:22 -4.81971 108.66218 36816 ft 453 kts 56°
2026-04-16 07:23 -4.78360 108.71356 36834 ft 448 kts 56°
2026-04-16 07:23 -4.74780 108.76450 36829 ft 445 kts 56°
2026-04-16 07:24 -4.71247 108.81490 36832 ft 443 kts 58°
2026-04-16 07:24 -4.68395 108.86927 36836 ft 440 kts 66°
2026-04-16 07:25 -4.65867 108.92518 36835 ft 440 kts 66°
2026-04-16 07:25 -4.63309 108.98107 36838 ft 441 kts 66°
2026-04-16 07:26 -4.60691 109.03676 36833 ft 442 kts 66°
2026-04-16 07:26 -4.58060 109.09207 36833 ft 443 kts 65°
2026-04-16 07:27 -4.55406 109.14780 36832 ft 443 kts 66°
2026-04-16 07:27 -4.52744 109.20364 36836 ft 444 kts 66°
2026-04-16 07:28 -4.50080 109.25954 36836 ft 445 kts 66°
2026-04-16 07:28 -4.47415 109.31551 36824 ft 445 kts 66°
2026-04-16 07:29 -4.44742 109.37160 36832 ft 446 kts 66°
2026-04-16 07:29 -4.42086 109.42738 36818 ft 445 kts 66°
2026-04-16 07:30 -4.39414 109.48341 36830 ft 445 kts 66°
2026-04-16 07:30 -4.36747 109.53936 36826 ft 444 kts 66°
2026-04-16 07:31 -4.34084 109.59524 36825 ft 444 kts 66°
2026-04-16 07:31 -4.31435 109.65071 36829 ft 443 kts 66°
2026-04-16 07:32 -4.28780 109.70636 36816 ft 442 kts 66°
2026-04-16 07:32 -4.26124 109.76203 36822 ft 442 kts 66°
2026-04-16 07:33 -4.23476 109.81753 36820 ft 441 kts 66°
2026-04-16 07:33 -4.20829 109.87297 36822 ft 441 kts 66°
2026-04-16 07:34 -4.18185 109.92833 36829 ft 441 kts 66°
2026-04-16 07:34 -4.15558 109.98338 36832 ft 441 kts 66°
2026-04-16 07:35 -4.12907 110.03887 36822 ft 441 kts 66°
2026-04-16 07:35 -4.10259 110.09430 36819 ft 440 kts 66°
2026-04-16 07:36 -4.07613 110.14966 36820 ft 441 kts 66°
2026-04-16 07:36 -4.04982 110.20471 36817 ft 440 kts 66°
2026-04-16 07:37 -4.02335 110.26013 36828 ft 440 kts 66°
2026-04-16 07:37 -3.99688 110.31547 36819 ft 441 kts 66°
2026-04-16 07:38 -3.97035 110.37094 36818 ft 441 kts 66°
2026-04-16 07:38 -3.94379 110.42645 36833 ft 441 kts 66°
2026-04-16 07:39 -3.91741 110.48152 36819 ft 442 kts 66°
2026-04-16 07:39 -3.89081 110.53704 36835 ft 442 kts 66°
2026-04-16 07:40 -3.86421 110.59267 36822 ft 443 kts 66°
2026-04-16 07:40 -3.83756 110.64834 36828 ft 443 kts 66°
2026-04-16 07:41 -3.81085 110.70405 36826 ft 443 kts 66°
2026-04-16 07:41 -3.78431 110.75948 36817 ft 443 kts 66°
2026-04-16 07:42 -3.75762 110.81515 36826 ft 443 kts 66°
2026-04-16 07:42 -3.73094 110.87082 36816 ft 443 kts 66°
2026-04-16 07:43 -3.70427 110.92645 36828 ft 442 kts 66°
2026-04-16 07:43 -3.67761 110.98207 36810 ft 442 kts 66°
2026-04-16 07:44 -3.65116 111.03724 36815 ft 442 kts 66°
2026-04-16 07:44 -3.62453 111.09278 36814 ft 442 kts 66°
2026-04-16 07:45 -3.59789 111.14830 36815 ft 442 kts 66°
2026-04-16 07:45 -3.57126 111.20380 36812 ft 442 kts 66°
2026-04-16 07:46 -3.54481 111.25893 36818 ft 442 kts 66°
2026-04-16 07:46 -3.51817 111.31441 36814 ft 442 kts 66°
2026-04-16 07:47 -3.49142 111.37013 36820 ft 443 kts 66°
2026-04-16 07:47 -3.46487 111.42544 36810 ft 443 kts 66°
2026-04-16 07:48 -3.43812 111.48110 36812 ft 443 kts 66°
2026-04-16 07:48 -3.41140 111.53677 36813 ft 443 kts 66°
2026-04-16 07:49 -3.38486 111.59206 36816 ft 443 kts 66°
2026-04-16 07:49 -3.35817 111.64765 36817 ft 443 kts 65°
2026-04-16 07:50 -3.33143 111.70325 36835 ft 443 kts 65°
2026-04-16 07:50 -3.30464 111.75897 36825 ft 444 kts 65°
2026-04-16 07:51 -3.27786 111.81473 36816 ft 444 kts 65°
2026-04-16 07:51 -3.25103 111.87051 36820 ft 444 kts 65°
2026-04-16 07:52 -3.22435 111.92598 36828 ft 444 kts 66°
2026-04-16 07:52 -3.19755 111.98174 36831 ft 444 kts 65°
2026-04-16 07:53 -3.17070 112.03750 36815 ft 444 kts 65°
2026-04-16 07:53 -3.14390 112.09322 36833 ft 445 kts 66°
2026-04-16 07:54 -3.11711 112.14895 36815 ft 445 kts 66°
2026-04-16 07:54 -3.09041 112.20443 36831 ft 444 kts 66°
2026-04-16 07:55 -3.06354 112.26025 36832 ft 444 kts 66°
2026-04-16 07:55 -3.03691 112.31613 36820 ft 443 kts 68°
2026-04-16 07:56 -3.01368 112.37321 36830 ft 443 kts 70°
2026-04-16 07:56 -2.99169 112.43036 36832 ft 443 kts 70°
2026-04-16 07:57 -2.96934 112.48786 36819 ft 443 kts 70°
2026-04-16 07:57 -2.94673 112.54536 36817 ft 444 kts 70°
2026-04-16 07:58 -2.92393 112.60302 36826 ft 445 kts 70°
2026-04-16 07:58 -2.90115 112.66060 36831 ft 444 kts 70°
2026-04-16 07:59 -2.88224 112.70842 36822 ft 445 kts 70°
2026-04-16 07:59 -2.85571 112.77544 36823 ft 445 kts 70°
2026-04-16 08:00 -2.83677 112.82330 36835 ft 445 kts 70°
2026-04-16 08:00 -2.81016 112.89058 36835 ft 446 kts 70°
2026-04-16 08:01 -2.79119 112.93857 36837 ft 446 kts 70°
2026-04-16 08:01 -2.76838 112.99631 36834 ft 446 kts 70°
2026-04-16 08:02 -2.74548 113.05415 36836 ft 446 kts 70°
2026-04-16 08:02 -2.71114 113.14085 36830 ft 447 kts 70°
2026-04-16 08:03 -2.68835 113.19840 36837 ft 447 kts 70°
2026-04-16 08:03 -2.66542 113.25630 36831 ft 448 kts 70°
2026-04-16 08:04 -2.64245 113.31433 36831 ft 448 kts 70°
2026-04-16 08:04 -2.61952 113.37223 36836 ft 447 kts 70°
2026-04-16 08:05 -2.59306 113.42805 36838 ft 449 kts 59°
2026-04-16 08:05 -2.55844 113.48005 36833 ft 449 kts 58°
2026-04-16 08:06 -2.52354 113.53207 36836 ft 450 kts 58°
2026-04-16 08:06 -2.48890 113.58438 36839 ft 450 kts 58°
2026-04-16 08:07 -2.45442 113.63687 36826 ft 451 kts 58°
2026-04-16 08:07 -2.42017 113.68902 36836 ft 451 kts 58°
2026-04-16 08:08 -2.38568 113.74149 36833 ft 451 kts 59°
2026-04-16 08:08 -2.35111 113.79409 36833 ft 451 kts 59°
2026-04-16 08:09 -2.31666 113.84653 36831 ft 452 kts 58°
2026-04-16 08:09 -2.28226 113.89884 36828 ft 452 kts 59°
2026-04-16 08:10 -2.24776 113.95192 36832 ft 451 kts 62°
2026-04-16 08:10 -2.22126 114.00804 36837 ft 449 kts 69°
2026-04-16 08:11 -2.19685 114.06555 36837 ft 449 kts 69°
2026-04-16 08:11 -2.17226 114.12295 36830 ft 449 kts 69°
2026-04-16 08:12 -2.14725 114.18031 36836 ft 450 kts 68°
2026-04-16 08:12 -2.12210 114.23759 36828 ft 450 kts 68°
2026-04-16 08:13 -2.09690 114.29489 36832 ft 450 kts 68°
2026-04-16 08:13 -2.07190 114.35185 36829 ft 450 kts 68°
2026-04-16 08:14 -2.04674 114.40908 36835 ft 449 kts 68°
2026-04-16 08:14 -2.02153 114.46641 36831 ft 449 kts 68°
2026-04-16 08:15 -1.99642 114.52358 36832 ft 449 kts 68°
2026-04-16 08:15 -1.97129 114.58079 36831 ft 449 kts 68°
2026-04-16 08:16 -1.94632 114.63759 36832 ft 449 kts 68°
2026-04-16 08:16 -1.92112 114.69491 36836 ft 450 kts 68°
2026-04-16 08:17 -1.89597 114.75210 36831 ft 450 kts 68°
2026-04-16 08:17 -1.87074 114.80952 36836 ft 451 kts 68°
2026-04-16 08:19 -1.76908 115.04074 33544 ft 451 kts 69°
2026-04-16 08:20 -1.75669 115.06887 33079 ft 446 kts 69°
2026-04-16 08:20 -1.74411 115.09750 32602 ft 441 kts 69°
2026-04-16 08:20 -1.73184 115.12537 32146 ft 437 kts 69°
2026-04-16 08:20 -1.71981 115.15271 31697 ft 433 kts 69°
2026-04-16 08:21 -1.70760 115.18047 31248 ft 429 kts 69°
2026-04-16 08:21 -1.69578 115.20733 30814 ft 425 kts 69°
2026-04-16 08:21 -1.68408 115.23435 30373 ft 421 kts 71°
2026-04-16 08:21 -1.67384 115.26157 29954 ft 415 kts 73°
2026-04-16 08:22 -1.66452 115.28878 29511 ft 412 kts 74°
2026-04-16 08:22 -1.65549 115.31581 29068 ft 408 kts 74°
2026-04-16 08:22 -1.64650 115.34263 28619 ft 405 kts 74°
2026-04-16 08:22 -1.63745 115.36925 28173 ft 402 kts 73°
2026-04-16 08:23 -1.62840 115.39562 27729 ft 399 kts 73°
2026-04-16 08:23 -1.61937 115.42175 27302 ft 397 kts 73°
2026-04-16 08:23 -1.61045 115.44745 26872 ft 394 kts 73°
2026-04-16 08:23 -1.60148 115.47326 26433 ft 392 kts 73°
2026-04-16 08:24 -1.59254 115.49898 26009 ft 389 kts 73°
2026-04-16 08:24 -1.58365 115.52453 25577 ft 387 kts 72°
2026-04-16 08:24 -1.57481 115.54996 25160 ft 387 kts 72°
2026-04-16 08:24 -1.56611 115.57499 24738 ft 386 kts 72°
2026-04-16 08:25 -1.55730 115.60035 24317 ft 389 kts 72°
2026-04-16 08:25 -1.54827 115.62631 23901 ft 400 kts 72°
2026-04-16 08:25 -1.53907 115.65275 23450 ft 402 kts 72°
2026-04-16 08:25 -1.52995 115.67896 23013 ft 398 kts 72°
2026-04-16 08:26 -1.52085 115.70507 22577 ft 396 kts 72°
2026-04-16 08:26 -1.51183 115.73096 22139 ft 393 kts 72°
2026-04-16 08:26 -1.50290 115.75660 21700 ft 390 kts 71°
2026-04-16 08:26 -1.49399 115.78221 21272 ft 388 kts 71°
2026-04-16 08:27 -1.48513 115.80768 20837 ft 386 kts 71°
2026-04-16 08:27 -1.47636 115.83290 20408 ft 384 kts 71°
2026-04-16 08:27 -1.46759 115.85807 19978 ft 381 kts 71°
2026-04-16 08:27 -1.45892 115.88299 19557 ft 379 kts 71°
2026-04-16 08:28 -1.45039 115.90748 19137 ft 377 kts 71°
2026-04-16 08:28 -1.44180 115.93218 18720 ft 375 kts 71°
2026-04-16 08:28 -1.43324 115.95674 18297 ft 372 kts 71°
2026-04-16 08:28 -1.42474 115.98115 17879 ft 371 kts 71°
2026-04-16 08:29 -1.41631 116.00542 17464 ft 369 kts 71°
2026-04-16 08:29 -1.40791 116.02956 17047 ft 367 kts 71°
2026-04-16 08:29 -1.39957 116.05354 16640 ft 364 kts 70°
2026-04-16 08:29 -1.39126 116.07740 16227 ft 362 kts 70°
2026-04-16 08:30 -1.38300 116.10112 15821 ft 360 kts 70°
2026-04-16 08:30 -1.37480 116.12465 15424 ft 358 kts 70°
2026-04-16 08:30 -1.36675 116.14809 15021 ft 355 kts 70°
2026-04-16 08:30 -1.35890 116.17115 14632 ft 353 kts 70°
2026-04-16 08:31 -1.35100 116.19438 14229 ft 351 kts 70°
2026-04-16 08:31 -1.34317 116.21739 13833 ft 349 kts 70°
2026-04-16 08:31 -1.33535 116.24030 13436 ft 347 kts 70°
2026-04-16 08:31 -1.32759 116.26300 13046 ft 344 kts 70°
2026-04-16 08:32 -1.31977 116.28553 12641 ft 341 kts 69°
2026-04-16 08:32 -1.31195 116.30786 12226 ft 340 kts 69°
2026-04-16 08:32 -1.30422 116.32974 11822 ft 338 kts 69°
2026-04-16 08:32 -1.29633 116.35187 11412 ft 336 kts 69°
2026-04-16 08:33 -1.28851 116.37384 11007 ft 334 kts 69°
2026-04-16 08:33 -1.28150 116.39591 10594 ft 334 kts 79°
2026-04-16 08:33 -1.28237 116.41896 10262 ft 332 kts 105°
2026-04-16 08:33 -1.29218 116.43948 9922 ft 329 kts 128°
2026-04-16 08:34 -1.30821 116.45497 9924 ft 312 kts 146°
2026-04-16 08:34 -1.32708 116.46474 9346 ft 308 kts 157°
2026-04-16 08:34 -1.34681 116.47312 8884 ft 307 kts 158°
2026-04-16 08:34 -1.36624 116.48143 8484 ft 300 kts 157°
2026-04-16 08:35 -1.38506 116.48968 8119 ft 292 kts 156°
2026-04-16 08:35 -1.40342 116.49764 7790 ft 283 kts 158°
2026-04-16 08:35 -1.42142 116.50520 7485 ft 275 kts 158°
2026-04-16 08:35 -1.43872 116.51245 7224 ft 272 kts 158°
2026-04-16 08:36 -1.45619 116.51979 6948 ft 271 kts 157°
2026-04-16 08:36 -1.47354 116.52710 6661 ft 270 kts 158°
2026-04-16 08:36 -1.49062 116.53436 6376 ft 263 kts 154°
2026-04-16 08:36 -1.50476 116.54545 6087 ft 257 kts 124°
2026-04-16 08:37 -1.51128 116.56156 5896 ft 249 kts 97°
2026-04-16 08:37 -1.51067 116.57868 5706 ft 247 kts 75°
2026-04-16 08:37 -1.50530 116.59494 5542 ft 246 kts 69°
2026-04-16 08:37 -1.49909 116.61067 5357 ft 245 kts 68°
2026-04-16 08:38 -1.49277 116.62646 5171 ft 245 kts 68°
2026-04-16 08:38 -1.48651 116.64225 4985 ft 245 kts 68°
2026-04-16 08:38 -1.48032 116.65808 4812 ft 244 kts 69°
2026-04-16 08:38 -1.47420 116.67394 4626 ft 243 kts 69°
2026-04-16 08:39 -1.46812 116.68973 4447 ft 243 kts 69°
2026-04-16 08:39 -1.46207 116.70553 4253 ft 243 kts 69°
2026-04-16 08:39 -1.45604 116.72126 4074 ft 241 kts 68°
2026-04-16 08:39 -1.44704 116.73512 3870 ft 239 kts 39°
2026-04-16 08:40 -1.43222 116.74196 3712 ft 235 kts
2026-04-16 08:40 -1.41643 116.74074 3567 ft 226 kts 343°
2026-04-16 08:40 -1.40202 116.73529 3396 ft 221 kts 337°
2026-04-16 08:40 -1.38811 116.72938 3209 ft 213 kts 337°
2026-04-16 08:41 -1.37479 116.72372 3064 ft 203 kts 337°
2026-04-16 08:41 -1.36182 116.71925 2902 ft 195 kts 357°
2026-04-16 08:41 -1.34936 116.72337 2779 ft 192 kts 41°
2026-04-16 08:41 -1.34122 116.73382 2672 ft 191 kts 61°
2026-04-16 08:42 -1.33499 116.74568 2563 ft 194 kts 63°
2026-04-16 08:42 -1.32890 116.75762 2515 ft 191 kts 63°
2026-04-16 08:42 -1.32294 116.76921 2399 ft 190 kts 62°
2026-04-16 08:42 -1.31704 116.78066 2187 ft 179 kts 64°
2026-04-16 08:43 -1.31201 116.79169 1936 ft 170 kts 65°
2026-04-16 08:43 -1.30751 116.80203 1764 ft 159 kts 65°
2026-04-16 08:43 -1.30319 116.81212 1546 ft 156 kts 65°
2026-04-16 08:43 -1.29897 116.82206 1348 ft 154 kts 68°
2026-04-16 08:44 -1.29479 116.83190 1149 ft 154 kts 65°
2026-04-16 08:44 -1.29060 116.84179 954 ft 154 kts 65°
2026-04-16 08:44 -1.28643 116.85163 752 ft 154 kts 65°
2026-04-16 08:44 -1.28229 116.86141 567 ft 152 kts 65°
2026-04-16 08:45 -1.27957 116.86783 416 ft 152 kts 65°
2026-04-16 08:45 -1.27550 116.87757 241 ft 150 kts 66°
2026-04-16 08:45 -1.27144 116.88725 30 ft 151 kts 66°
2026-04-16 08:45 -1.26698 116.89777 21 ft 84 kts 67°
2026-04-16 08:46 -1.26585 116.90042 21 ft 34 kts 66°
2026-04-16 08:46 -1.26529 116.90119 19 ft 8 kts 12°
2026-04-16 08:46 -1.26481 116.90108 19 ft 6 kts 338°
2026-04-16 08:46 -1.26446 116.90094 20 ft 5 kts 338°
2026-04-16 08:47 -1.26411 116.90080 22 ft 6 kts 338°
2026-04-16 08:47 -1.26368 116.90062 20 ft 7 kts 338°
2026-04-16 08:47 -1.26329 116.90037 21 ft 7 kts 297°
2026-04-16 08:47 -1.26336 116.89990 20 ft 7 kts 249°
2026-04-16 08:48 -1.26354 116.89945 20 ft 7 kts 247°
2026-04-16 08:48 -1.26346 116.89908 20 ft 5 kts 330°
2026-04-16 08:48 -1.26315 116.89894 20 ft 5 kts 336°
2026-04-16 08:48 -1.26303 116.89888 20 ft 1 kts 336°
2026-04-16 08:49 -1.26301 116.89888 20 ft 0 kts 336°